Weather History for Kansas City, MO

Change the Weather History Date:

Tuesday, April 2, 2013

  Actual Average Record
Temperature  
Mean Temperature 40 °F -  
Max Temperature 52 °F 60 °F 89 °F (2012)
Min Temperature 30 °F 41 °F 30 °F (2013)
Degree Days  
Heating Degree Days 24    
Moisture  
Dew Point 18 °F    
Average Humidity 43    
Maximum Humidity 60    
Minimum Humidity 27    
Precipitation  
Precipitation 0.00 in - - ()
Sea Level Pressure  
Sea Level Pressure 30.31 in    
Wind  
Wind Speed 6 mph (ENE)    
Max Wind Speed 12 mph    
Max Gust Speed -    
Visibility 10 miles    
Events      
Averages and records for this station are not official NWS values.
T = Trace of Precipitation, MM = Missing Value Source: NWS Daily Summary

Daily Weather History Graph

Daily Weather History Graph

Search for Another Location

Airport:

Trip Planner

Search our weather history database for the weather conditions in past years. The results will help you decide how hot, cold, wet, or windy it might be!

Date:

Astronomy

Apr. 02, 2013 Rise Set
Actual Time 7:00 AM CDT 7:43 PM CDT
Civil Twilight 6:33 AM CDT 8:10 PM CDT
Nautical Twilight 6:02 AM CDT 8:42 PM CDT
Astronomical Twilight 5:29 AM CDT 9:15 PM CDT
Moon 1:47 AM CDT (4/2) 11:54 AM CDT (4/2)
Length of Visible Light 13h 36m
Length of Day
12h 42m
Waning Gibbous, 55% of the Moon is Illuminated
Apr 2
Waning Gibbous
Apr 2
Last Quarter
Apr 10
New
Apr 18
First Quarter
Apr 25
Full

Hourly Weather History & Observations

Time (CDT) Temp. Windchill Dew Point Humidity Pressure Visibility Wind Dir Wind Speed Gust Speed Precip Events Conditions
12:54 AM 35.1 °F 30.1 °F 17.1 °F 48% 30.30 in 10.0 mi North 5.8 mph - N/A   Clear
1:54 AM 34.0 °F 27.2 °F 17.1 °F 50% 30.31 in 10.0 mi NNE 8.1 mph - N/A   Clear
2:54 AM 33.1 °F 28.7 °F 16.0 °F 50% 30.31 in 10.0 mi ENE 4.6 mph - N/A   Clear
3:54 AM 30.9 °F 25.2 °F 16.0 °F 54% 30.31 in 10.0 mi NE 5.8 mph - N/A   Clear
4:54 AM 30.9 °F 25.2 °F 17.1 °F 57% 30.32 in 10.0 mi ENE 5.8 mph - N/A   Clear
5:54 AM 30.9 °F - 17.1 °F 57% 30.34 in 10.0 mi Calm Calm - N/A   Clear
6:03 AM 30.2 °F 26.7 °F 17.6 °F 60% 30.32 in 10.0 mi ESE 3.5 mph - N/A   Clear
6:54 AM 30.9 °F 25.2 °F 17.1 °F 57% 30.35 in 10.0 mi East 5.8 mph - N/A   Clear
7:54 AM 32.0 °F 25.6 °F 19.0 °F 59% 30.35 in 10.0 mi East 6.9 mph - N/A   Clear
8:54 AM 36.0 °F 29.0 °F 19.0 °F 50% 30.36 in 10.0 mi East 9.2 mph - N/A   Clear
9:54 AM 39.0 °F 33.4 °F 19.0 °F 45% 30.36 in 10.0 mi ENE 8.1 mph - N/A   Clear
10:54 AM 41.0 °F 35.8 °F 18.0 °F 40% 30.36 in 10.0 mi NE 8.1 mph - N/A   Clear
11:54 AM 43.0 °F 38.8 °F 18.0 °F 37% 30.35 in 10.0 mi ENE 6.9 mph - N/A   Clear
12:54 PM 46.0 °F 41.9 °F 19.0 °F 34% 30.32 in 10.0 mi ESE 8.1 mph - N/A   Clear
1:54 PM 48.0 °F - 17.1 °F 29% 30.31 in 10.0 mi Variable 5.8 mph - N/A   Clear
2:54 PM 50.0 °F - 18.0 °F 28% 30.30 in 10.0 mi East 8.1 mph - N/A   Clear
3:54 PM 51.1 °F - 18.0 °F 27% 30.28 in 10.0 mi East 8.1 mph - N/A   Clear
4:54 PM 51.1 °F - 18.0 °F 27% 30.26 in 10.0 mi East 6.9 mph - N/A   Clear
5:54 PM 51.1 °F - 18.0 °F 27% 30.26 in 10.0 mi NNE 5.8 mph - N/A   Clear
6:54 PM 48.9 °F - 19.0 °F 31% 30.27 in 10.0 mi ENE 9.2 mph - N/A   Clear
7:54 PM 46.9 °F - 19.0 °F 33% 30.26 in 10.0 mi ENE 11.5 mph - N/A   Clear
8:54 PM 45.0 °F 41.8 °F 21.0 °F 39% 30.28 in 10.0 mi East 5.8 mph - N/A   Clear
9:54 PM 43.0 °F 38.8 °F 21.0 °F 42% 30.29 in 10.0 mi East 6.9 mph - N/A   Clear
10:54 PM 42.1 °F 39.2 °F 21.9 °F 45% 30.29 in 10.0 mi East 4.6 mph - N/A   Clear
11:54 PM 42.1 °F 39.2 °F 21.0 °F 43% 30.30 in 10.0 mi East 4.6 mph - N/A   Clear